STARLINK-5714, 55614

Orbit data source: Space-Track

STARLINK-5714, 55614 is a payload satellite owned by SpaceX/Seattle (US) in LEO that was launched on Sun, 12 Feb 2023 UTC via an FALCON 9 launch vehicle from the Air Force Eastern Test Range (AFETR). Payload-class satellites include a variety of spacecraft equipped with specific instruments for various scientific and technological missions. These include communications satellites like Starlink; space stations such as the ISS; scientific satellites like the Hubble; Earth observation satellites from companies like Planet Labs, Umbra, and HawkEye 360; GPS; miniature CubeSats for education and research; and military/defense satellites.

Loading next visibility...
Identifier
55614, 2023-020AX
Orbit
LEO
Country
Flag of USUS
Related business
Manufacturer
SpaceX/Seattle
Mission
Operational Commercial Communications
Bus & Motor
STARLINK, Unknown motor
Mass
305 kg wet, ~290 kg dry
Launch date (UTC)
2023-02-12 (3 years ago)
Launch vehicle
FALCON 9
Launch site
Air Force Eastern Test Range (AFETR)
Object type
Payload
Rocket body
Debris
Shape & HBR
Box + 1 Pan, 10.1 m
Radar Cross Section
13.562 m², Large (>1 m²)

Expand to show TLE details & history
Last TLE update: 1 day ago

TLE from 1 day ago
0 STARLINK-5714
1 55614U 23020AX  26191.51163613 -.00000175  00000-0  31641-5 0  9997
2 55614  43.0042   5.8158 0001328 261.9013  98.1688 15.27573799187998
Epoch: 2026-07-10T12:16Z
TLE epoch observation values (Epoch: 2026-07-10T12:16:45.361Z)
Latitude
-0.00003°
Longitude
-106.81139°
Altitude
482.973 km
Speed
7.626 km/s
True Right ascension
00h 23m 15s
True Declination
0° 00' 00"
Sunlit
Object was in daylight at epoch
Visualization orbit readout
Latitude
Unknown
Longitude
Unknown
Altitude
Unknown
Speed
Unknown
Apparent Right ascension
Unknown
Apparent Declination
Unknown
Sunlit
N/A
Visualization observer readout
Local Sidereal Time
02:15:35
Azimuth
Unknown
Elevation
Unknown
Doppler factor
Unknown
Orbital elements
Apogee altitude
485.924 km
Perigee altitude
484.101 km
Semi-major axis
6,863.149 km
Eccentricity
0.00013
Inclination
43.0042°
RAAN
5.8158°
Arg. of periapsis
261.9013°
True anomaly
98.18386°
Mean anomaly
98.1688°
Eccentric anomaly
98.17633°
Mean motion
3.81732 °/min
Orbital period
94.31 mins
BSTAR
0.0000031641
Loading maneuver chart data...
Computing Atmospheric mass density...
Loading historical data...
Loading historical data...
Loading historical data...
Loading historical data...
Loading historical data...
Loading historical data...
Loading historical data...

Documentation

Showing up to 5 results
|